Jackson, TN

6:53 PM CST on December 07, 2016 (GMT -0600)
McKellar-Sipes Regional

Weather History for KMKL - December, 2012

Change the Weather History Date:

Sunday, December 9, 2012

  Actual Average Record
Temperature  
Mean Temperature 65 °F 42 °F  
Max Temperature 72 °F 52 °F 75 °F (2007)
Min Temperature 58 °F 32 °F 9 °F (1995)
Degree Days  
Heating Degree Days 0 23  
Month to date heating degree days 38 197  
Since 1 July heating degree days 845 864  
Cooling Degree Days 0 0  
Month to date cooling degree days 3 0  
Year to date cooling degree days 1934 1697  
Growing Degree Days 16 (Base 50)    
Moisture  
Dew Point 59 °F    
Average Humidity 79    
Maximum Humidity 97    
Minimum Humidity 61    
Precipitation  
Precipitation 1.06 in 0.19 in 3.86 in (2008)
Month to date precipitation 1.76 1.65  
Year to date precipitation 39.39 49.57  
Snow  
Snow 0.00 in 0.00 in 1.20 in (1988)
Month to date snowfall 0.0 0.0  
Since 1 July snowfall 0.0 0.1  
Snow Depth 0.00 in    
Sea Level Pressure  
Sea Level Pressure 29.85 in    
Wind  
Wind Speed 9 mph (SSW)    
Max Wind Speed 24 mph    
Max Gust Speed 35 mph    
Visibility 8 miles    
Events Rain , Thunderstorm    
T = Trace of Precipitation, MM = Missing Value Source: NWS Daily Summary

Daily Weather History Graph

Daily Weather History Graph

Search for Another Location

Airport or City:

Trip Planner

Search our weather history database for the weather conditions in past years. The results will help you decide how hot, cold, wet, or windy it might be!

Date:

Astronomy

Dec. 09, 2012 Rise Set
Actual Time 6:53 AM CST 4:42 PM CST
Civil Twilight 6:25 AM CST 5:10 PM CST
Nautical Twilight 5:53 AM CST 5:42 PM CST
Astronomical Twilight 5:22 AM CST 6:13 PM CST
Moon 2:32 AM CST (12/9) 1:44 PM CST (12/9)
Length of Visible Light 10h 45m
Length of Day
9h 48m
Waning Crescent, 18% of the Moon is Illuminated
Dec 9
Waning Crescent
Dec 13
New
Dec 19
First Quarter
Dec 28
Full
Jan 4
Last Quarter

Hourly Weather History & Observations

Time (CST) Temp. Dew Point Humidity Pressure Visibility Wind Dir Wind Speed Gust Speed Precip Events Conditions
12:07 AM 60.8 °F 59.0 °F 94% 29.92 in 6.0 mi ESE 3.5 mph - 0.00 in   Overcast
12:53 AM 61.0 °F 59.0 °F 93% 29.90 in 7.0 mi SSE 3.5 mph - 0.00 in   Overcast
1:16 AM 60.8 °F 59.0 °F 94% 29.90 in 7.0 mi SSE 3.5 mph - N/A   Overcast
1:27 AM 60.8 °F 59.0 °F 94% 29.91 in 7.0 mi SSE 4.6 mph - N/A   Overcast
1:53 AM 61.0 °F 59.0 °F 93% 29.88 in 9.0 mi SSE 6.9 mph - N/A   Mostly Cloudy
2:01 AM 60.8 °F 59.0 °F 94% 29.89 in 10.0 mi SSE 4.6 mph - N/A   Scattered Clouds
2:15 AM 60.8 °F 59.0 °F 94% 29.89 in 10.0 mi South 5.8 mph - N/A   Scattered Clouds
2:53 AM 62.1 °F 60.1 °F 93% 29.87 in 10.0 mi South 5.8 mph - N/A   Scattered Clouds
3:53 AM 63.0 °F 60.1 °F 90% 29.87 in 10.0 mi South 10.4 mph - N/A   Mostly Cloudy
4:53 AM 63.0 °F 60.1 °F 90% 29.87 in 10.0 mi South 11.5 mph - N/A   Mostly Cloudy
5:29 AM 62.6 °F 59.0 °F 88% 29.87 in 10.0 mi South 9.2 mph - N/A   Mostly Cloudy
5:40 AM 62.6 °F 59.0 °F 88% 29.87 in 10.0 mi South 9.2 mph - N/A Thunderstorm Mostly Cloudy
6:09 AM 62.6 °F 59.0 °F 88% 29.88 in 10.0 mi South 9.2 mph - N/A   Mostly Cloudy
6:33 AM 62.6 °F 59.0 °F 88% 29.88 in 10.0 mi South 11.5 mph - N/A Thunderstorm Scattered Clouds
6:48 AM 62.6 °F 59.0 °F 88% 29.88 in 10.0 mi South 13.8 mph - N/A   Mostly Cloudy
6:53 AM 63.0 °F 59.0 °F 87% 29.88 in 10.0 mi South 10.4 mph - N/A Thunderstorm Mostly Cloudy
7:19 AM 62.6 °F 60.8 °F 94% 29.91 in 9.0 mi WNW 12.7 mph - 0.02 in Rain , Thunderstorm Light Rain
7:29 AM 62.6 °F 60.8 °F 94% 29.91 in 2.5 mi West 6.9 mph - 0.13 in Rain , Thunderstorm Rain
7:35 AM 62.6 °F 60.8 °F 94% 29.91 in 1.2 mi SSW 5.8 mph - 0.23 in Rain , Thunderstorm Heavy Rain
7:42 AM 62.6 °F 60.8 °F 94% 29.91 in 2.0 mi South 10.4 mph - 0.27 in Rain , Thunderstorm Light Rain
7:46 AM 62.6 °F 60.8 °F 94% 29.90 in 3.0 mi South 9.2 mph - 0.27 in Rain Light Rain
7:53 AM 62.1 °F 60.1 °F 93% 29.90 in 8.0 mi South 11.5 mph 17.3 mph 0.28 in Rain Light Rain
8:11 AM 62.6 °F 60.8 °F 94% 29.90 in 10.0 mi South 12.7 mph - 0.00 in Rain , Thunderstorm Light Rain
8:26 AM 62.6 °F 60.8 °F 94% 29.91 in 10.0 mi South 11.5 mph - 0.02 in Rain Light Rain
8:53 AM 62.1 °F 60.1 °F 93% 29.91 in 10.0 mi South 10.4 mph - 0.03 in Rain Light Rain
9:53 AM 64.9 °F 61.0 °F 87% 29.92 in 10.0 mi SSW 10.4 mph - 0.00 in   Overcast
10:17 AM 64.4 °F 60.8 °F 88% 29.92 in 10.0 mi South 10.4 mph - N/A   Overcast
10:53 AM 64.9 °F 60.1 °F 84% 29.91 in 10.0 mi SW 11.5 mph - N/A   Overcast
11:41 AM 64.4 °F 60.8 °F 88% 29.88 in 10.0 mi Calm Calm - 0.02 in   Overcast
11:53 AM 64.9 °F 61.0 °F 87% 29.87 in 10.0 mi Calm Calm - 0.02 in   Mostly Cloudy
12:53 PM 70.0 °F 59.0 °F 68% 29.83 in 10.0 mi SSW 17.3 mph 24.2 mph N/A   Scattered Clouds
1:53 PM 72.0 °F 57.9 °F 61% 29.82 in 10.0 mi SSW 13.8 mph 18.4 mph N/A   Mostly Cloudy
2:53 PM 70.0 °F 55.9 °F 61% 29.81 in 10.0 mi SSW 12.7 mph - N/A   Partly Cloudy
3:53 PM 69.1 °F 55.9 °F 63% 29.79 in 10.0 mi South 10.4 mph 16.1 mph N/A   Partly Cloudy
4:53 PM 68.0 °F 57.9 °F 70% 29.79 in 10.0 mi South 5.8 mph 17.3 mph 0.00 in Rain Light Rain
5:15 PM 64.4 °F 59.0 °F 83% 29.80 in 4.0 mi Calm Calm - 0.03 in Rain , Thunderstorm Thunderstorms and Rain
5:26 PM 64.4 °F 60.8 °F 88% 29.81 in 2.5 mi WNW 12.7 mph 23.0 mph 0.07 in Rain , Thunderstorm Heavy Thunderstorms and Rain
5:29 PM 64.4 °F 60.8 °F 88% 29.82 in 2.5 mi West 17.3 mph 28.8 mph 0.08 in Rain , Thunderstorm Thunderstorms and Rain
5:33 PM 64.4 °F 60.8 °F 88% 29.80 in 3.0 mi Variable 4.6 mph 28.8 mph 0.10 in Rain , Thunderstorm Thunderstorms and Rain
5:53 PM 64.0 °F 60.1 °F 87% 29.80 in 10.0 mi South 8.1 mph - 0.17 in Rain , Thunderstorm Thunderstorms and Rain
6:03 PM 64.4 °F 60.8 °F 88% 29.80 in 10.0 mi South 6.9 mph - 0.03 in Rain Light Rain
6:23 PM 64.4 °F 60.8 °F 88% 29.80 in 10.0 mi South 9.2 mph - 0.08 in Thunderstorm Thunderstorm
6:28 PM 64.4 °F 60.8 °F 88% 29.80 in 10.0 mi South 8.1 mph - 0.09 in Thunderstorm Thunderstorm
6:43 PM 64.4 °F 60.8 °F 88% 29.80 in 10.0 mi South 10.4 mph - 0.11 in Rain Light Rain
6:53 PM 64.0 °F 60.1 °F 87% 29.79 in 10.0 mi South 6.9 mph - 0.11 in   Overcast
7:53 PM 64.0 °F 60.1 °F 87% 29.78 in 10.0 mi South 10.4 mph - N/A   Overcast
8:53 PM 64.0 °F 60.1 °F 87% 29.77 in 10.0 mi South 11.5 mph 18.4 mph 0.01 in   Mostly Cloudy
9:51 PM 60.8 °F 57.2 °F 88% 29.80 in 3.0 mi NW 17.3 mph 34.5 mph 0.02 in Rain Heavy Rain
9:53 PM 61.0 °F 55.9 °F 83% 29.80 in 2.5 mi West 12.7 mph 34.5 mph 0.02 in Rain Heavy Rain
9:57 PM 60.8 °F 57.2 °F 88% 29.81 in 1.8 mi West 12.7 mph - 0.01 in Rain Heavy Rain
10:07 PM 60.8 °F 57.2 °F 88% 29.81 in 2.5 mi West 11.5 mph - 0.05 in Rain Heavy Rain
10:14 PM 59.0 °F 57.2 °F 94% 29.81 in 4.0 mi WSW 12.7 mph - 0.07 in Rain Heavy Rain
10:53 PM 59.0 °F 57.0 °F 93% 29.79 in 9.0 mi West 4.6 mph - 0.21 in Rain Light Rain
11:53 PM 57.9 °F 57.0 °F 97% 29.78 in 10.0 mi SW 6.9 mph - 0.19 in   Overcast